JR4VEV-13 Weather Reports


time (UTC)temp
F
wind
direction
speed
knots
gust
knots
rain 1hr
in
rain 24hr
in
rain mn
in
humidity
%
barometer
mb
20260508095125 65 255 2.6 6.1 0.00 0.00 0.00 46 1011.5
20260508094125 65 290 3.5 5.2 0.00 0.00 0.00 46 1011.3
20260508093125 66 297 3.5 7.8 0.00 0.00 0.00 44 1011.2
20260508092126 66 301 3.5 10.4 0.00 0.00 0.00 44 1010.9
20260508091126 66 267 4.3 8.7 0.00 0.00 0.00 43 1010.7
20260508090125 66 296 3.5 9.6 0.00 0.00 0.00 43 1010.6
20260508085126 67 274 4.3 12.2 0.00 0.00 0.00 42 1010.3
20260508084125 68 248 7.8 12.2 0.00 0.00 0.00 42 1010.1
20260508083126 69 255 8.7 11.3 0.00 0.00 0.00 40 1009.9
20260508082125 69 269 3.5 11.3 0.00 0.00 0.00 38 1009.6
20260508081126 70 246 6.1 10.4 0.00 0.00 0.00 39 1009.4
20260508080126 71 262 3.5 8.7 0.00 0.00 0.00 40 1009.3
20260508075125 71 285 6.1 13.0 0.00 0.00 0.00 40 1009.1
20260508074126 71 243 2.6 13.9 0.00 0.00 0.00 37 1009.1
20260508073125 72 278 7.8 13.9 0.00 0.00 0.00 36 1008.9
20260508072126 73 283 6.1 13.0 0.00 0.00 0.00 34 1008.6
20260508071126 73 293 6.1 8.7 0.00 0.00 0.00 32 1008.4
20260508070126 74 354 4.3 13.9 0.00 0.00 0.00 33 1008.0
20260508065125 73 325 6.1 18.2 0.00 0.00 0.00 35 1007.9
20260508064125 74 269 3.5 13.0 0.00 0.00 0.00 36 1007.7
20260508063124 75 298 7.0 13.0 0.00 0.00 0.00 35 1007.7
20260508062125 75 283 5.2 12.2 0.00 0.00 0.00 41 1007.3
20260508061126 75 311 7.0 13.0 0.00 0.00 0.00 42 1007.3
20260508060125 75 245 7.0 13.0 0.00 0.00 0.00 44 1007.2
20260508055125 74 312 11.3 20.0 0.00 0.00 0.00 45 1007.2
20260508054126 75 305 7.0 11.3 0.00 0.00 0.00 47 1007.3
20260508053125 75 322 1.7 12.2 0.00 0.00 0.00 50 1007.6
20260508052126 75 302 8.7 14.8 0.00 0.00 0.00 48 1007.4
20260508051125 76 211 5.2 13.9 0.00 0.00 0.00 49 1007.4
20260508050124 76 283 7.0 12.2 0.00 0.00 0.00 47 1007.3
20260508045124 77 321 7.0 16.5 0.00 0.00 0.00 46 1007.2
20260508044126 76 310 9.6 11.3 0.00 0.00 0.00 46 1007.1
20260508043125 74 179 2.6 0.0 0.00 0.00 0.00 53 1007.3
20260508042124 74 228 0.9 4.3 0.00 0.00 0.00 52 1007.4
20260508041125 74 311 3.5 7.0 0.00 0.00 0.00 50 1007.3
20260508040126 74 255 1.7 8.7 0.00 0.00 0.00 51 1007.2
20260508035125 74 304 5.2 11.3 0.00 0.00 0.00 50 1007.2
20260508034124 73 288 5.2 10.4 0.00 0.00 0.00 51 1007.3
20260508033126 73 287 2.6 4.3 0.00 0.00 0.00 54 1007.2
20260508032125 72 295 0.9 3.5 0.00 0.00 0.00 55 1007.4
20260508031125 72 240 3.5 6.1 0.00 0.00 0.00 53 1007.5
20260508030125 73 276 3.5 7.0 0.00 0.00 0.00 53 1007.6
20260508025125 74 270 2.6 7.0 0.00 0.00 0.00 53 1007.5
20260508024125 74 245 3.5 4.3 0.00 0.00 0.00 55 1007.6
20260508023126 75 272 0.0 2.6 0.00 0.00 0.00 63 1007.4
20260508022125 74 284 0.0 2.6 0.00 0.00 0.00 66 1007.6
20260508021126 73 292 0.9 3.5 0.00 0.00 0.00 67 1007.8
20260508020125 73 240 0.0 5.2 0.00 0.00 0.00 67 1007.9
20260508015126 74 272 0.9 4.3 0.00 0.00 0.00 65 1007.8
20260508014125 74 177 1.7 2.6 0.00 0.00 0.00 66 1008.1
20260508013124 74 138 0.9 7.0 0.00 0.00 0.00 65 1008.0
20260508012124 74 104 3.5 3.5 0.00 0.00 0.00 65 1008.1
20260508011125 74 275 0.0 5.2 0.00 0.00 0.00 67 1008.0
20260508010124 73 198 1.7 4.3 0.00 0.00 0.00 68 1008.1
20260508005124 72 16 0.0 1.7 0.00 0.00 0.00 71 1008.0
20260508004125 71 102 0.0 1.7 0.00 0.00 0.00 74 1008.3
20260508003124 70 207 0.0 0.9 0.00 0.00 0.00 75 1008.4
20260508002125 69 81 0.9 0.9 0.00 0.00 0.00 78 1008.4
20260508001125 68 214 0.9 1.7 0.00 0.00 0.00 84 1008.4
20260508000124 67 256 0.0 0.9 0.00 0.00 0.00 84 1008.7
20260507235124 66 277 0.0 0.9 0.00 0.00 0.00 85 1008.6
20260507234125 66 241 0.0 0.9 0.00 0.00 0.00 85 1008.7
20260507233124 65 274 0.0 0.9 0.00 0.00 0.00 87 1008.7
20260507232125 64 274 0.0 2.6 0.00 0.00 0.00 87 1008.8
20260507231125 63 263 0.9 0.9 0.00 0.00 0.00 89 1008.9
20260507230124 63 251 0.0 0.9 0.00 0.00 0.00 90 1009.3
20260507225125 62 253 0.0 0.0 0.00 0.00 0.00 90 1009.3
20260507224125 62 115 0.0 0.0 0.00 0.00 0.00 91 1009.3
20260507223125 61 115 0.0 0.9 0.00 0.00 0.00 92 1009.4
20260507222124 61 115 0.0 0.0 0.00 0.00 0.00 92 1009.4
20260507221124 61 208 0.0 0.9 0.00 0.00 0.00 93 1009.4
20260507220659 61 255 0.0 0.9 0.00 0.00 0.00 93 1009.5
20260507220124 61 259 0.0 0.9 0.00 0.00 0.00 93 1009.4
20260507215124 60 259 0.0 0.9 0.00 0.00 0.00 94 1009.4
20260507214124 60 262 0.0 0.9 0.00 0.00 0.00 94 1009.2
20260507213125 60 263 0.0 0.9 0.00 0.00 0.00 94 1009.2
20260507212125 59 262 0.0 0.0 0.00 0.00 0.00 94 1009.1
20260507211124 59 262 0.0 0.0 0.00 0.00 0.00 94 1009.0
20260507210124 59 262 0.0 0.9 0.00 0.00 0.00 94 1009.2
20260507205125 59 263 0.0 0.0 0.00 0.00 0.00 94 1009.0
20260507204124 59 263 0.0 0.0 0.00 0.00 0.00 94 1009.1
20260507203124 59 263 0.0 0.0 0.00 0.00 0.00 94 1009.2
20260507202125 59 263 0.0 0.0 0.00 0.00 0.00 94 1009.3
20260507201123 59 263 0.0 0.9 0.00 0.00 0.00 94 1009.3
20260507200125 59 263 0.0 0.9 0.00 0.00 0.00 94 1009.2
20260507195124 60 259 0.0 0.0 0.00 0.00 0.00 93 1009.1
20260507194125 60 252 0.0 0.0 0.00 0.00 0.00 93 1009.0
20260507193124 60 252 0.0 0.9 0.00 0.00 0.00 93 1009.4
20260507192124 60 253 0.0 0.9 0.00 0.00 0.00 93 1009.4
20260507191124 60 260 0.0 0.0 0.00 0.00 0.00 93 1009.3
20260507190123 60 260 0.0 0.9 0.00 0.00 0.00 93 1009.3
20260507185125 60 260 0.0 0.0 0.00 0.00 0.00 93 1009.2
20260507184123 60 260 0.0 0.9 0.00 0.00 0.00 93 1009.2
20260507183658 60 260 0.0 0.9 0.00 0.00 0.00 93 1009.3
20260507183125 60 260 0.0 0.0 0.00 0.00 0.00 93 1009.4
20260507182124 60 260 0.0 0.9 0.00 0.00 0.00 93 1009.3
20260507181125 60 260 0.0 0.9 0.00 0.00 0.00 92 1009.6
20260507180124 60 264 0.0 0.9 0.00 0.00 0.00 92 1009.6
20260507175123 60 264 0.0 0.0 0.00 0.00 0.00 92 1009.7
20260507174124 60 264 0.0 0.9 0.00 0.00 0.00 92 1009.4
20260507173125 60 266 0.0 0.9 0.00 0.00 0.00 92 1009.6
20260507172125 61 266 0.0 0.0 0.00 0.00 0.00 91 1009.5
20260507171124 61 266 0.0 0.9 0.00 0.00 0.00 91 1009.7
20260507170124 61 266 0.0 1.7 0.00 0.00 0.00 91 1009.9
20260507165124 61 268 0.0 0.9 0.00 0.00 0.00 91 1010.0
20260507164125 61 272 0.0 1.7 0.00 0.00 0.00 91 1010.0
20260507163124 61 243 0.0 0.0 0.00 0.00 0.00 91 1010.3
20260507162125 61 243 0.0 0.9 0.00 0.00 0.00 91 1010.2
20260507161125 61 231 0.0 0.0 0.00 0.00 0.00 91 1010.3
20260507160123 61 231 0.0 0.0 0.00 0.00 0.00 91 1010.5
20260507155124 61 259 0.0 0.9 0.00 0.00 0.00 91 1010.6
20260507154125 61 259 0.0 0.9 0.00 0.00 0.00 91 1010.7
20260507153124 61 260 0.0 1.7 0.00 0.00 0.00 91 1010.8
20260507152124 61 271 0.0 0.0 0.00 0.00 0.00 91 1010.6
20260507151124 61 269 0.0 0.9 0.00 0.00 0.00 90 1010.7
20260507150125 61 269 0.0 0.9 0.00 0.00 0.00 90 1010.8
20260507145125 61 269 0.0 0.9 0.00 0.00 0.00 90 1010.9
20260507144124 61 269 0.0 0.9 0.00 0.00 0.00 90 1010.9
20260507143124 62 269 0.0 0.0 0.00 0.00 0.00 89 1011.0
20260507142124 62 269 0.0 0.9 0.00 0.00 0.00 89 1010.9
20260507141123 62 269 0.0 0.0 0.00 0.00 0.00 89 1010.9
20260507140124 62 269 0.0 0.0 0.00 0.00 0.00 89 1011.0
20260507135124 62 269 0.0 0.9 0.00 0.00 0.00 89 1011.1
20260507134124 62 269 0.0 1.7 0.00 0.00 0.00 89 1011.2
20260507133123 62 252 0.0 1.7 0.00 0.00 0.00 89 1011.3
20260507132124 62 247 0.0 0.9 0.00 0.00 0.00 89 1011.2
20260507131124 62 259 0.0 2.6 0.00 0.00 0.00 88 1011.0
20260507130125 62 263 0.0 0.9 0.00 0.00 0.00 88 1011.2
20260507125124 63 262 0.0 0.9 0.00 0.00 0.00 87 1011.2
20260507124123 63 266 0.0 0.0 0.00 0.00 0.00 86 1011.3
20260507123125 63 266 0.0 0.0 0.00 0.00 0.00 86 1011.4
20260507122126 63 266 0.0 0.0 0.00 0.00 0.00 85 1011.3
20260507121125 63 266 0.0 0.0 0.00 0.00 0.00 85 1011.4
20260507120125 64 264 0.0 0.9 0.00 0.00 0.00 85 1011.4
20260507115126 64 266 0.0 0.0 0.00 0.00 0.00 84 1011.2
20260507114125 64 266 0.0 0.9 0.00 0.00 0.00 83 1011.2
20260507113125 64 266 0.0 0.0 0.00 0.00 0.00 83 1011.2
20260507112126 65 266 0.0 0.9 0.00 0.00 0.00 82 1010.9
20260507111125 65 266 0.0 0.9 0.00 0.00 0.00 81 1010.8
20260507110126 66 266 0.0 0.9 0.00 0.00 0.00 81 1010.8
20260507105126 66 266 0.0 0.9 0.00 0.00 0.00 79 1010.7
20260507104125 67 293 0.9 0.9 0.00 0.00 0.00 77 1010.6
20260507103125 68 256 0.0 0.0 0.00 0.00 0.00 75 1010.6
20260507102126 69 256 0.0 0.9 0.00 0.00 0.00 73 1010.4
20260507101126 70 105 0.0 0.0 0.00 0.00 0.00 70 1010.4
20260507100126 70 105 0.0 0.9 0.00 0.00 0.00 69 1010.3